Regional Weather Roundup
Issued by NWS

Home | Current Version | Previous Version | Graphics & Text | Print | Product List | Glossary On
Versions: 1 2 3 4 5 6 7 8 9 10 11 12 13 14 15 16 17 18 19 20 21 22 23 24 25 26 27 28 29 30 31 32 33 34 35 36 37 38 39 40 41 42 43 44 45 46 47 48 49 50
000
ASUS45 KBOU 260507
RWRCO

WEATHER ROUNDUP FOR COLORADO
NATIONAL WEATHER SERVICE DENVER/BOULDER CO
1100 PM MDT THU MAY 25 2017

NOTE: "FAIR" INDICATES FEW OR NO CLOUDS BELOW 12000 FEET WITH NO
SIGNIFICANT WEATHER AND/OR OBSTRUCTIONS TO VISIBILITY.

COZ001>005-013-030-031-260600-
...NORTHWEST COLORADO...

CITY           SKY/WX    TMP DP  RH WIND       PRES   REMARKS
CRAIG          FAIR      47  42  83 SE3       29.92R
HAYDEN         FAIR      45  37  76 E10       29.94S
MEEKER         FAIR      48  42  80 E9        29.91F
RABBIT EARS PA SNOW      32  32 100 NW6       30.07S VSB 1/2 WCI  26
STEAMBOAT SPGS MOCLDY    42  39  90 SE6       29.95F
WALDEN           N/A     39  34  81 S3        30.02R
$$

COZ006>008-011-260600-
...WEST CENTRAL VALLEYS...

CITY           SKY/WX    TMP DP  RH WIND       PRES   REMARKS
GRAND JUNCTION MOCLDY    65  35  33 W5        29.82R
MONTROSE       CLOUDY    60  37  42 E15       29.92R
EAGLE          CLOUDY    50  44  80 E3        30.00R
RIFLE          MOCLDY    57  42  57 SE7       29.89R
DELTA          MOCLDY    65  36  34 NE8       29.84S
NUCLA          FAIR      59  36  41 E10       29.92R
$$

COZ017>023-064>068-260600-
...SOUTHWEST COLORADO...

CITY           SKY/WX    TMP DP  RH WIND       PRES   REMARKS
DURANGO        FAIR      61  28  28 N13       29.90R
CORTEZ         MOCLDY    69  26  20 VRB7G21   29.84R
PAGOSA SPRINGS CLOUDY    58  26  28 CALM      29.97R
TELLURIDE      LGT RAIN  44  39  84 E10G16    30.09F
WOLF CREEK PAS MOCLDY    37  23  56 S12G20    30.23S
$$

COZ009-010-012-014-032>034-037-058>063-260600-
...CENTRAL COLORADO...

CITY           SKY/WX    TMP DP  RH WIND       PRES   REMARKS
ASPEN          CLOUDY    48  39  71 N7        30.01R
BUENA VISTA    FAIR      47  36  65 NW8G16    29.99R
COPPER MTN     CLOUDY    37  30  75 W21G35    30.15R
BERTHOUD PASS  HAZE      28  18  64 N13G32    30.13R VSB 1/4 WCI  18
COTTONWOOD PAS FAIR      45  32  61 W7G22     30.07R
GUNNISON       LGT RAIN  49  37  63 VRB7      30.05R
KREMMLING      LGT RAIN  45  39  81 SE6       30.01R
LEADVILLE      CLOUDY    37  33  85 VRB7      30.07R
MONARCH PASS   FAIR      34  28  80 W22       30.27R WCI  22
SALIDA         FAIR      55  35  46 N10       30.03R
SUNLIGHT       LGT RAIN  34  32  93 SW9G18    30.13R WCI  26
WILKERSON PASS FAIR      36  27  69 SW10G17   30.14R
$$

COZ069>075-260600-
...SAN LUIS VALLEY/SANGRE DE CRISTO MOUNTAINS...

CITY           SKY/WX    TMP DP  RH WIND       PRES   REMARKS
ALAMOSA        FAIR      58  26  29 W15G29    29.94R
DEL NORTE      CLOUDY    55  29  36 W10G22    29.97R
LA VETA PASS   FAIR      45  23  42 S13G18    30.20R
SAGUACHE       MOCLDY    52  32  46 CALM      29.98R
$$

COZ035-036-038>040-260600-
...NORTHERN COLORADO FRONT RANGE...

CITY           SKY/WX    TMP DP  RH WIND       PRES   REMARKS
DENVER INTL AP MOCLDY    50  45  83 SW10      29.88R
DMNS CITY PARK   N/A     53  45  76 E8G15     29.85F
AURORA         LGT RAIN  50  48  92 S8        29.91R
FRONT RANGE AP NOT AVBL
ERIE MUNI ARPT CLOUDY    52  47  83 SE6       29.87R
BOULDER MUN AP MOCLDY    50  48  93 N5        29.87R
CENTENNIAL     LGT RAIN  51  48  89 E9        29.85F FOG
BROOMFIELD     NOT AVBL
FORT COLLINS   LGT RAIN  54  45  71 N15       29.86R
LONGMONT       CLOUDY    55  49  81 S7        29.88R
$$

COZ041-046-047-076>085-087-088-260600-
...PIKES PEAK/PALMER DIVIDE AND SOUTHERN FOOTHILLS...

CITY           SKY/WX    TMP DP  RH WIND       PRES   REMARKS
COLO. SPRINGS  LGT RAIN  55  42  61 N6        29.91R
A. F. ACADEMY  FAIR      52  41  66 N9        29.92R
SCHRIEVER AFB  MOCLDY    52  39  61 N15       29.92R
CHEYENNE MTN   LGT RAIN  52  43  72 N12       29.88R
ELLICOTT       MOCLDY   N/A N/A N/A NE18      29.89R
FALCON         CLOUDY    50  38  64 N7        29.95R
FORT CARSON    NOT AVBL
LIMON          FAIR      50  45  83 SW5       29.88R
MONUMENT HILL  LGT RAIN  43  39  87 CALM      29.96R
CANON CITY     NOT AVBL
WALSENBURG     FAIR      55  48  76 N12       29.90R
TRINIDAD       FAIR      58  44  60 NE10      29.86R
$$

COZ042>045-048>051-090-091-260600-
...NORTHEAST COLORADO...

CITY           SKY/WX    TMP DP  RH WIND       PRES   REMARKS
GREELEY ARPT   MOCLDY    54  46  74 NW14      29.84R
AKRON          FAIR      51  45  79 E8        29.77F
BURLINGTON     FAIR      56  50  80 N10       29.80R
WRAY           FAIR      59  46  63 NW8       29.76R
YUMA           CLOUDY    52  46  82 N5        29.75F
STERLING       FAIR      50  50 100 NW8       29.78S
HOLYOKE        NOT AVBL
FORT MORGAN    FAIR      49  47  91 W5        29.81R
$$

COZ086-089-092>099-260600-
...SOUTHEAST COLORADO...

CITY           SKY/WX    TMP DP  RH WIND       PRES   REMARKS
PUEBLO         FAIR      60  45  57 E3        29.85R
LA JUNTA       FAIR      57  46  66 NW8       29.82R
LAMAR          FAIR      59  46  62 NE7       29.72R
SPRINGFIELD      N/A     54  47  77 N7        29.76R
$$



USA.gov is the U.S. government's official web portal to all federal, state and local government web resources and services.